Location: Starlight Observatory
(38.4029°N, 85.8936°W)
Time: 19:48:29
(UTC-04:00)

Iridium 84 - Visible Passes

Search period start: 16 August 2017 00:00
Search period end: 26 August 2017 00:00
Orbit: 776 x 779 km, 86.4° (Epoch: 16 August)

Date Brightness Start Highest point End Pass type
(mag) Time Alt. Az. Time Alt. Az. Time Alt. Az.
16 Aug 7.7 01:24:17 21° NNE 01:24:17 21° NNE 01:26:05 10° NNE visible
16 Aug 7.9 03:04:45 14° NW 03:04:45 14° NW 03:05:55 10° NNW visible
17 Aug 8.0 00:50:55 14° NE 00:50:55 14° NE 00:51:52 10° NNE visible
17 Aug 7.7 02:31:23 20° NNW 02:31:23 20° NNW 02:33:10 10° NNW visible
18 Aug 7.6 01:58:01 23° N 01:58:01 23° N 01:59:56 10° N visible
19 Aug 7.7 01:24:38 21° NNE 01:24:38 21° NNE 01:26:22 10° N visible
20 Aug 7.9 00:51:15 16° NNE 00:51:15 16° NNE 00:52:27 10° NNE visible
20 Aug 8.0 02:31:43 15° NNW 02:31:43 15° NNW 02:32:53 10° NNW visible
21 Aug 8.2 00:17:52 10° NE 00:17:52 10° NE 00:17:59 10° NE visible
21 Aug 7.8 01:58:20 19° NNW 01:58:20 19° NNW 01:59:54 10° N visible
22 Aug 7.8 01:24:56 20° N 01:24:56 20° N 01:26:32 10° N visible
23 Aug 7.9 00:51:32 17° NNE 00:51:32 17° NNE 00:52:50 10° NNE visible
23 Aug 8.3 02:32:01 11° NW 02:32:01 11° NW 02:32:20 10° NW visible
24 Aug 8.1 00:18:08 13° NNE 00:18:08 13° NNE 00:18:44 10° NNE visible
24 Aug 8.1 01:58:37 16° NNW 01:58:37 16° NNW 01:59:44 10° NNW visible
25 Aug 8.0 01:25:12 18° N 01:25:12 18° N 01:26:34 10° N visible
